Time,TemperatureF,DewpointF,PressureIn,WindDirection,WindDirectionDegrees,WindSpeedMPH,WindSpeedGustMPH,Humidity,HourlyPrecipIn,Conditions,Clouds,dailyrainin,SolarRadiationWatts/m^2,SoftwareType,DateUTC
2013-01-30 00:02:00,51.0,48.0,-100.00,WSW,241,3.0,5.0,90,0.00,,,0.74,0.000000,,2013-01-30 06:02:00,
2013-01-30 00:22:00,51.0,48.0,-100.00,WSW,241,3.0,5.0,90,0.00,,,0.74,0.000000,,2013-01-30 06:22:00,
2013-01-30 00:32:00,51.0,48.0,-100.00,WSW,241,3.0,5.0,90,0.00,,,0.74,0.000000,,2013-01-30 06:32:00,
2013-01-30 00:42:00,51.0,48.0,-100.00,WSW,241,3.0,5.0,90,0.00,,,0.74,0.000000,,2013-01-30 06:42:00,
2013-01-30 00:52:00,51.0,48.0,-100.00,WSW,241,3.0,5.0,90,0.00,,,0.74,0.000000,,2013-01-30 06:52:00,
2013-01-30 01:32:00,51.0,47.0,-100.00,SW,229,4.0,8.0,85,0.00,,,0.74,0.000000,,2013-01-30 07:32:00,
2013-01-30 01:42:00,51.0,47.0,-100.00,SW,229,4.0,8.0,85,0.00,,,0.74,0.000000,,2013-01-30 07:42:00,
2013-01-30 01:52:00,51.0,47.0,-100.00,SW,229,4.0,8.0,85,0.00,,,0.74,0.000000,,2013-01-30 07:52:00,
2013-01-30 02:01:00,51.0,47.0,-100.00,SW,229,4.0,8.0,85,0.00,,,0.74,0.000000,,2013-01-30 08:01:00,
2013-01-30 02:32:00,51.0,43.0,-100.00,WSW,248,6.0,11.0,75,0.00,,,0.74,0.000000,,2013-01-30 08:32:00,
2013-01-30 02:42:00,51.0,43.0,-100.00,WSW,248,6.0,11.0,75,0.00,,,0.74,0.000000,,2013-01-30 08:42:00,
2013-01-30 02:52:00,51.0,43.0,-100.00,WSW,248,6.0,11.0,75,0.00,,,0.74,0.000000,,2013-01-30 08:52:00,
2013-01-30 03:01:00,51.0,43.0,-100.00,WSW,248,6.0,11.0,75,0.00,,,0.74,0.000000,,2013-01-30 09:01:00,
2013-01-30 03:32:00,49.0,39.0,-100.00,WSW,256,5.0,9.0,69,0.00,,,0.74,0.000000,,2013-01-30 09:32:00,
2013-01-30 03:42:00,49.0,39.0,-100.00,WSW,256,5.0,9.0,69,0.00,,,0.74,0.000000,,2013-01-30 09:42:00,
2013-01-30 03:52:00,49.0,39.0,-100.00,WSW,256,5.0,9.0,69,0.00,,,0.74,0.000000,,2013-01-30 09:52:00,
2013-01-30 04:01:00,49.0,39.0,-100.00,WSW,256,5.0,9.0,69,0.00,,,0.74,0.000000,,2013-01-30 10:01:00,
2013-01-30 04:02:00,48.0,36.0,-100.00,West,269,8.0,14.0,63,0.00,,,0.74,0.000000,,2013-01-30 10:02:00,
2013-01-30 04:22:00,48.0,36.0,-100.00,West,269,8.0,14.0,63,0.00,,,0.74,0.000000,,2013-01-30 10:22:00,
2013-01-30 04:32:00,48.0,36.0,-100.00,West,269,8.0,14.0,63,0.00,,,0.74,0.000000,,2013-01-30 10:32:00,
2013-01-30 04:42:00,48.0,36.0,-100.00,West,269,8.0,14.0,63,0.00,,,0.74,0.000000,,2013-01-30 10:42:00,
2013-01-30 04:52:00,48.0,36.0,-100.00,West,269,8.0,14.0,63,0.00,,,0.74,0.000000,,2013-01-30 10:52:00,
2013-01-30 05:02:00,46.0,41.0,-100.00,WNW,283,11.0,17.0,82,0.00,,,0.74,0.000000,,2013-01-30 11:02:00,
2013-01-30 05:33:00,46.0,41.0,-100.00,WNW,283,11.0,17.0,82,0.00,,,0.74,0.000000,,2013-01-30 11:33:00,
2013-01-30 05:42:00,46.0,41.0,-100.00,WNW,283,11.0,17.0,82,0.00,,,0.74,0.000000,,2013-01-30 11:42:00,
2013-01-30 05:52:00,46.0,41.0,-100.00,WNW,283,11.0,17.0,82,0.00,,,0.74,0.000000,,2013-01-30 11:52:00,
2013-01-30 06:02:00,44.0,38.0,-100.00,West,280,12.0,20.0,78,0.00,,,0.74,0.000000,,2013-01-30 12:02:00,
2013-01-30 06:33:00,44.0,38.0,-100.00,West,280,12.0,20.0,78,0.00,,,0.74,0.000000,,2013-01-30 12:33:00,
2013-01-30 06:43:00,44.0,38.0,-100.00,West,280,12.0,20.0,78,0.00,,,0.74,0.000000,,2013-01-30 12:43:00,
2013-01-30 07:02:00,43.0,36.0,-100.00,West,281,10.0,19.0,77,0.00,,,0.74,0.000000,,2013-01-30 13:02:00,
2013-01-30 07:23:00,43.0,36.0,-100.00,West,281,10.0,19.0,77,0.00,,,0.74,0.000000,,2013-01-30 13:23:00,
2013-01-30 07:33:00,43.0,36.0,-100.00,West,281,10.0,19.0,77,0.00,,,0.74,0.000000,,2013-01-30 13:33:00,
2013-01-30 07:43:00,43.0,36.0,-100.00,West,281,10.0,19.0,77,0.00,,,0.74,0.000000,,2013-01-30 13:43:00,
2013-01-30 07:53:00,43.0,36.0,-100.00,West,281,10.0,19.0,77,0.00,,,0.74,0.000000,,2013-01-30 13:53:00,
2013-01-30 08:02:00,43.0,35.0,-100.00,WNW,287,9.0,19.0,74,0.00,,,0.74,4.000000,,2013-01-30 14:02:00,
2013-01-30 08:33:00,43.0,35.0,-100.00,WNW,287,9.0,19.0,74,0.00,,,0.74,4.000000,,2013-01-30 14:33:00,
2013-01-30 08:43:00,43.0,35.0,-100.00,WNW,287,9.0,19.0,74,0.00,,,0.74,4.000000,,2013-01-30 14:43:00,
2013-01-30 08:53:00,43.0,35.0,-100.00,WNW,287,9.0,19.0,74,0.00,,,0.74,4.000000,,2013-01-30 14:53:00,
2013-01-30 09:02:00,40.0,33.0,-100.00,WNW,285,10.0,19.0,77,0.01,,,0.75,36.000000,,2013-01-30 15:02:00,
2013-01-30 09:33:00,40.0,33.0,-100.00,WNW,285,10.0,19.0,77,0.01,,,0.75,36.000000,,2013-01-30 15:33:00,
2013-01-30 09:43:00,40.0,33.0,-100.00,WNW,285,10.0,19.0,77,0.01,,,0.75,36.000000,,2013-01-30 15:43:00,
2013-01-30 09:53:00,40.0,33.0,-100.00,WNW,285,10.0,19.0,77,0.01,,,0.75,36.000000,,2013-01-30 15:53:00,
2013-01-30 10:02:00,41.0,31.0,-100.00,WNW,290,10.0,20.0,68,0.00,,,0.75,71.000000,,2013-01-30 16:02:00,
2013-01-30 10:33:00,41.0,31.0,-100.00,WNW,290,10.0,20.0,68,0.00,,,0.75,71.000000,,2013-01-30 16:33:00,
2013-01-30 10:42:00,41.0,31.0,-100.00,WNW,290,10.0,20.0,68,0.00,,,0.75,71.000000,,2013-01-30 16:42:00,
2013-01-30 10:52:00,41.0,31.0,-100.00,WNW,290,10.0,20.0,68,0.00,,,0.75,71.000000,,2013-01-30 16:52:00,
2013-01-30 11:02:00,41.0,29.0,-100.00,WNW,290,10.0,18.0,63,0.00,,,0.75,87.000000,,2013-01-30 17:02:00,
2013-01-30 11:33:00,41.0,29.0,-100.00,WNW,290,10.0,18.0,63,0.00,,,0.75,87.000000,,2013-01-30 17:33:00,
2013-01-30 11:43:00,41.0,29.0,-100.00,WNW,290,10.0,18.0,63,0.00,,,0.75,87.000000,,2013-01-30 17:43:00,
2013-01-30 11:53:00,41.0,29.0,-100.00,WNW,290,10.0,18.0,63,0.00,,,0.75,87.000000,,2013-01-30 17:53:00,
2013-01-30 12:02:00,42.0,28.0,-100.00,WNW,286,13.0,25.0,58,0.00,,,-99.99,152.000000,,2013-01-30 18:02:00,
2013-01-30 12:33:00,42.0,28.0,-100.00,WNW,286,13.0,25.0,58,0.00,,,-99.99,152.000000,,2013-01-30 18:33:00,
2013-01-30 12:43:00,42.0,28.0,-100.00,WNW,286,13.0,25.0,58,0.00,,,-99.99,152.000000,,2013-01-30 18:43:00,
2013-01-30 12:53:00,42.0,28.0,-100.00,WNW,286,13.0,25.0,58,0.00,,,-99.99,152.000000,,2013-01-30 18:53:00,
2013-01-30 13:02:00,44.0,28.0,-100.00,WNW,293,13.0,24.0,54,0.00,,,0.73,308.000000,,2013-01-30 19:02:00,
2013-01-30 13:33:00,44.0,28.0,-100.00,WNW,293,13.0,24.0,54,0.00,,,0.73,308.000000,,2013-01-30 19:33:00,
2013-01-30 13:43:00,44.0,28.0,-100.00,WNW,293,13.0,24.0,54,0.00,,,0.73,308.000000,,2013-01-30 19:43:00,
2013-01-30 13:53:00,44.0,28.0,-100.00,WNW,293,13.0,24.0,54,0.00,,,0.73,308.000000,,2013-01-30 19:53:00,
2013-01-30 14:02:00,45.0,27.0,-100.00,WNW,289,11.0,22.0,50,0.00,,,0.72,372.000000,,2013-01-30 20:02:00,
2013-01-30 14:22:00,45.0,27.0,-100.00,WNW,289,11.0,22.0,50,0.00,,,0.72,372.000000,,2013-01-30 20:22:00,
2013-01-30 14:33:00,45.0,27.0,-100.00,WNW,289,11.0,22.0,50,0.00,,,0.72,372.000000,,2013-01-30 20:33:00,
2013-01-30 14:42:00,45.0,27.0,-100.00,WNW,289,11.0,22.0,50,0.00,,,0.72,372.000000,,2013-01-30 20:42:00,
2013-01-30 14:53:00,45.0,27.0,-100.00,WNW,289,11.0,22.0,50,0.00,,,0.72,372.000000,,2013-01-30 20:53:00,
2013-01-30 15:02:00,46.0,26.0,-100.00,West,277,15.0,25.0,45,0.00,,,0.72,524.000000,,2013-01-30 21:02:00,
2013-01-30 15:23:00,46.0,26.0,-100.00,West,277,15.0,25.0,45,0.00,,,0.72,524.000000,,2013-01-30 21:23:00,
2013-01-30 15:32:00,46.0,26.0,-100.00,West,277,15.0,25.0,45,0.00,,,0.72,524.000000,,2013-01-30 21:32:00,
2013-01-30 15:43:00,46.0,26.0,-100.00,West,277,15.0,25.0,45,0.00,,,0.72,524.000000,,2013-01-30 21:43:00,
2013-01-30 15:53:00,46.0,26.0,-100.00,West,277,15.0,25.0,45,0.00,,,0.72,524.000000,,2013-01-30 21:53:00,
2013-01-30 16:02:00,45.0,25.0,-100.00,WNW,297,8.0,20.0,46,0.00,,,0.72,184.000000,,2013-01-30 22:02:00,
2013-01-30 16:22:00,45.0,25.0,-100.00,WNW,297,8.0,20.0,46,0.00,,,0.72,184.000000,,2013-01-30 22:22:00,
2013-01-30 16:33:00,45.0,25.0,-100.00,WNW,297,8.0,20.0,46,0.00,,,0.72,184.000000,,2013-01-30 22:33:00,
2013-01-30 16:43:00,45.0,25.0,-100.00,WNW,297,8.0,20.0,46,0.00,,,0.72,184.000000,,2013-01-30 22:43:00,
2013-01-30 16:53:00,45.0,25.0,-100.00,WNW,297,8.0,20.0,46,0.00,,,0.72,184.000000,,2013-01-30 22:53:00,
2013-01-30 17:02:00,47.0,25.0,-100.00,WNW,285,9.0,19.0,41,0.00,,,0.72,210.000000,,2013-01-30 23:02:00,
2013-01-30 17:23:00,47.0,25.0,-100.00,WNW,285,9.0,19.0,41,0.00,,,0.72,210.000000,,2013-01-30 23:23:00,
2013-01-30 17:33:00,47.0,25.0,-100.00,WNW,285,9.0,19.0,41,0.00,,,0.72,210.000000,,2013-01-30 23:33:00,
2013-01-30 17:42:00,47.0,25.0,-100.00,WNW,285,9.0,19.0,41,0.00,,,0.72,210.000000,,2013-01-30 23:42:00,
2013-01-30 17:52:00,47.0,25.0,-100.00,WNW,285,9.0,19.0,41,0.00,,,0.72,210.000000,,2013-01-30 23:52:00,
2013-01-30 18:02:00,44.0,25.0,-100.00,WNW,282,6.0,13.0,46,0.00,,,0.60,20.000000,,2013-01-31 00:02:00,
2013-01-30 18:32:00,44.0,25.0,-100.00,WNW,282,6.0,13.0,46,0.00,,,0.60,20.000000,,2013-01-31 00:32:00,
2013-01-30 18:42:00,44.0,25.0,-100.00,WNW,282,6.0,13.0,46,0.00,,,0.60,20.000000,,2013-01-31 00:42:00,
2013-01-30 18:53:00,44.0,25.0,-100.00,WNW,282,6.0,13.0,46,0.00,,,0.60,20.000000,,2013-01-31 00:53:00,
2013-01-30 19:32:00,41.0,26.0,-100.00,West,277,4.0,10.0,55,0.00,,,0.20,0.000000,,2013-01-31 01:32:00,
2013-01-30 19:42:00,41.0,26.0,-100.00,West,277,4.0,10.0,55,0.00,,,0.20,0.000000,,2013-01-31 01:42:00,
2013-01-30 19:52:00,41.0,26.0,-100.00,West,277,4.0,10.0,55,0.00,,,0.20,0.000000,,2013-01-31 01:52:00,
2013-01-30 20:01:00,41.0,26.0,-100.00,West,277,4.0,10.0,55,0.00,,,0.20,0.000000,,2013-01-31 02:01:00,
2013-01-30 20:02:00,36.0,28.0,-100.00,West,259,2.0,4.0,72,0.00,,,0.05,0.000000,,2013-01-31 02:02:00,
2013-01-30 20:22:00,36.0,28.0,-100.00,West,259,2.0,4.0,72,0.00,,,0.05,0.000000,,2013-01-31 02:22:00,
2013-01-30 20:32:00,36.0,28.0,-100.00,West,259,2.0,4.0,72,0.00,,,0.05,0.000000,,2013-01-31 02:32:00,
2013-01-30 20:42:00,36.0,28.0,-100.00,West,259,2.0,4.0,72,0.00,,,0.05,0.000000,,2013-01-31 02:42:00,
2013-01-30 20:52:00,36.0,28.0,-100.00,West,259,2.0,4.0,72,0.00,,,0.05,0.000000,,2013-01-31 02:52:00,
2013-01-30 21:02:00,33.0,28.0,-100.00,WNW,285,0.0,3.0,82,0.00,,,0.02,0.000000,,2013-01-31 03:02:00,
2013-01-30 21:32:00,33.0,28.0,-100.00,WNW,285,0.0,3.0,82,0.00,,,0.02,0.000000,,2013-01-31 03:32:00,
2013-01-30 21:42:00,33.0,28.0,-100.00,WNW,285,0.0,3.0,82,0.00,,,0.02,0.000000,,2013-01-31 03:42:00,
2013-01-30 21:52:00,33.0,28.0,-100.00,WNW,285,0.0,3.0,82,0.00,,,0.02,0.000000,,2013-01-31 03:52:00,
2013-01-30 22:02:00,31.0,28.0,-100.00,NW,306,0.0,2.0,87,0.00,,,0.01,0.000000,,2013-01-31 04:02:00,
2013-01-30 22:32:00,31.0,28.0,-100.00,NW,306,0.0,2.0,87,0.00,,,0.01,0.000000,,2013-01-31 04:32:00,
2013-01-30 22:42:00,31.0,28.0,-100.00,NW,306,0.0,2.0,87,0.00,,,0.01,0.000000,,2013-01-31 04:42:00,
2013-01-30 22:52:00,31.0,28.0,-100.00,NW,306,0.0,2.0,87,0.00,,,0.01,0.000000,,2013-01-31 04:52:00,
2013-01-30 23:42:00,30.0,27.0,-100.00,West,263,2.0,2.0,87,0.00,,,0.01,0.000000,,2013-01-31 05:42:00,
2013-01-30 23:52:00,30.0,27.0,-100.00,West,263,2.0,2.0,87,0.00,,,0.01,0.000000,,2013-01-31 05:52:00,